Location: Chenereilles
(45.4866°N, 4.0790°E)
Time: 13:23:30
(UTC+00:00)

Cosmos 1340 Rocket - Pass Details

Date: 12 November 2019
Orbit: 529 x 559 km, 81.2° (Epoch: 12 December)

Event Time Altitude Azimuth Distance (km) Brightness Sun altitude
Rises 16:53:58 0° 195° (SSW) 2,696 6.8 -6.8°
Reaches altitude 10° 16:56:06 10° 197° (SSW) 1,813 6.0 -7.2°
Maximum altitude 17:00:05 70° 281° (WNW) 591 3.2 -7.9°
Drops below altitude 10° 17:04:09 10° 6° (N) 1,845 5.3 -8.5°
Sets 17:06:21 0° 9° (N) 2,748 6.1 -8.9°
